Stations météo

réclame
Mon MeteoGroup
Karesuando A, Suède (2081): Température de l'air & dewpoint: 15.07.2018 21:00:00 - 21.07.2018 21:00:00 (CEST)Karesuando A, Suède (2081): Vitesse du vent & gusts: 15.07.2018 21:00:00 - 21.07.2018 21:00:00 (CEST)Karesuando A, Suède (2081): Direction du vent: 15.07.2018 21:00:00 - 21.07.2018 21:00:00 (CEST)Karesuando A, Suède (2081): reduced air pressure: 15.07.2018 21:00:00 - 21.07.2018 21:00:00 (CEST)Karesuando A, Suède (2081): visibility: 15.07.2018 21:00:00 - 21.07.2018 21:00:00 (CEST)Karesuando A, Suède (2081): Quantités de précipitations: 15.07.2018 21:00:00 - 21.07.2018 21:00:00 (CEST)
Date & Time tt [°C] td [°C] ff [km/h] ff [knt] fx [km/h] fx [knt] dd ppp [hPa] vv [km] rr [mm]
21.07.2018 21:00:00 21,1 15,4 6 4 14 7 ESE 1005,9 48 0,0
21.07.2018 20:00:00 22,4 14,8 6 3 21 11 SSE 1005,7 41 0,0
21.07.2018 19:00:00 23,2 14,5 10 5 23 13 SE 1005,4 41 0,0
21.07.2018 18:00:00 23,0 14,8 10 5 25 14 SE 1005,8 38 0,0
21.07.2018 17:00:00 21,4 16,0 7 4 31 17 SE 1006,7 41 0,0
21.07.2018 16:00:00 23,2 14,5 16 8 32 17 SSE 1006,6 43 0,0
21.07.2018 15:00:00 23,9 13,2 4 2 24 13 N 1006,2 42 0,0
21.07.2018 14:00:00 23,2 12,3 13 7 28 15 SE 1006,9 48 0,0
21.07.2018 13:00:00 23,6 13,5 7 4 23 12 NNE 1007,2 42 0,0
21.07.2018 12:00:00 26,6 13,0 10 5 17 9 E 1007,0 38 0,0
21.07.2018 11:00:00 24,5 14,6 6 3 12 6 NNE 1008,0 43 0,0
21.07.2018 10:00:00 22,9 14,5 6 3 10 5 E 1008,7 41 0,0
21.07.2018 09:00:00 20,6 14,9 3 2 8 5 N 1009,3 49 0,0
21.07.2018 08:00:00 17,8 13,7 3 2 9 5 NNW 1010,3 41 0,0
21.07.2018 07:00:00 17,3 13,2 4 2 8 5 NW 1010,6 34 0,0
21.07.2018 06:00:00 15,3 12,8 3 2 6 3 WNW 1011,2 42 0,0
21.07.2018 05:00:00 13,0 11,9 4 2 10 5 NW 1011,7 33 0,0
21.07.2018 04:00:00 12,0 11,4 7 4 14 8 NNW 1012,0 23 0,0
21.07.2018 03:00:00 13,1 12,2 8 5 14 8 NW 1012,0 40 0,0
21.07.2018 02:00:00 13,6 12,5 5 3 13 7 NW 1012,0 40 0,0
21.07.2018 01:00:00 15,1 12,8 9 5 17 9 NW 1011,8 50 0,0
21.07.2018 00:00:00 16,9 13,1 9 5 16 8 NW 1011,6 50 0,0
20.07.2018 23:00:00 20,6 12,0 6 4 12 7 S 1010,7 50 0,0
20.07.2018 22:00:00 21,9 11,9 6 3 17 9 S 1010,8 50 0,0
20.07.2018 21:00:00 24,0 11,3 9 5 16 9 SSE 1010,4 50 0,0
20.07.2018 20:00:00 25,4 12,3 5 3 20 11 SSE 1010,3 48 0,0
20.07.2018 19:00:00 27,1 10,4 10 5 26 14 S 1010,0 50 0,0
20.07.2018 18:00:00 27,3 10,6 10 5 24 13 SSW 1010,1 47 0,0
20.07.2018 17:00:00 28,1 10,4 10 5 28 15 S 1010,4 42 0,0
20.07.2018 16:00:00 28,1 10,3 10 6 28 15 S 1010,9 41 0,0
20.07.2018 15:00:00 28,9 10,6 15 8 33 18 SSW 1011,3 45 0,0
20.07.2018 14:00:00 29,0 10,2 14 8 37 20 SSW 1011,6 44 0,0
20.07.2018 13:00:00 28,6 10,8 12 7 34 19 SSW 1011,9 42 0,0
20.07.2018 12:00:00 28,1 11,7 10 5 30 16 SSW 1012,4 40 0,0
20.07.2018 11:00:00 25,7 13,9 5 3 12 7 ESE 1013,3 38 0,0
20.07.2018 10:00:00 23,2 14,0 3 2 11 6 S 1014,2 46 0,0
20.07.2018 09:00:00 20,7 12,9 4 2 9 5 E 1014,9 40 0,0
20.07.2018 08:00:00 19,5 13,7 5 3 9 5 NW 1015,4 42 0,0
20.07.2018 07:00:00 17,8 13,1 3 1 9 5 WNW 1015,8 48 0,0
20.07.2018 06:00:00 15,4 12,6 6 3 13 7 NW 1016,4 46 0,0
20.07.2018 05:00:00 13,6 12,3 10 5 18 10 NNW 1016,9 39 0,0
20.07.2018 04:00:00 12,1 11,9 7 4 10 5 NW 1017,2 19 0,0
20.07.2018 03:00:00 11,9 11,5 6 3 10 5 NW 1017,4 27 0,0
20.07.2018 02:00:00 12,6 12,0 4 2 7 4 NW 1017,4 26 0,0
20.07.2018 01:00:00 13,3 12,1 6 3 18 10 WNW 1017,2 43 0,0
20.07.2018 00:00:00 15,7 12,8 12 6 26 14 NW 1016,6 50 0,0
19.07.2018 23:00:00 18,2 13,0 10 5 22 12 NW 1016,1 50 0,0
19.07.2018 22:00:00 23,2 9,2 9 5 19 11 SSE 1014,9 50 0,0
19.07.2018 21:00:00 25,3 9,6 10 6 29 15 SSE 1014,3 48 0,0
19.07.2018 20:00:00 26,6 10,4 13 7 32 18 S 1013,9 50 0,0
19.07.2018 19:00:00 27,2 10,0 14 7 29 16 S 1013,6 50 0,0
19.07.2018 18:00:00 28,1 10,4 18 10 35 19 S 1013,5 44 0,0
19.07.2018 17:00:00 27,4 11,1 14 8 34 18 S 1013,6 45 0,0
19.07.2018 16:00:00 28,1 12,9 13 7 33 18 S 1013,7 44 0,0
19.07.2018 15:00:00 28,7 12,6 16 9 34 18 S 1013,8 41 0,0
19.07.2018 14:00:00 28,1 11,3 17 9 34 19 S 1014,4 41 0,0
19.07.2018 13:00:00 28,1 12,0 15 8 34 18 S 1014,5 38 0,0
19.07.2018 12:00:00 27,4 11,9 16 9 36 20 S 1014,8 43 0,0
19.07.2018 11:00:00 27,4 12,7 15 8 36 19 S 1015,0 39 0,0
19.07.2018 10:00:00 26,5 12,2 15 8 32 18 S 1015,3 37 0,0
19.07.2018 09:00:00 25,5 12,8 14 8 26 14 S 1015,5 50 0,0
19.07.2018 08:00:00 24,0 12,4 13 7 - - S 1015,9 44 -
19.07.2018 07:00:00 - - - - - - - - - -
19.07.2018 06:00:00 19,3 13,0 6 3 11 6 E 1016,9 45 0,0
19.07.2018 05:00:00 18,8 13,2 3 2 14 7 ENE 1016,9 48 0,0
19.07.2018 04:00:00 17,0 12,6 9 5 12 7 ENE 1017,2 48 0,0
19.07.2018 03:00:00 16,6 12,8 4 2 6 4 NE 1017,4 50 0,0
19.07.2018 02:00:00 16,9 11,8 2 1 11 6 S 1017,3 50 0,0
19.07.2018 01:00:00 18,7 11,6 7 4 15 8 SSW 1016,9 50 0,0
19.07.2018 00:00:00 21,8 11,3 9 5 18 10 S 1016,2 50 0,0
18.07.2018 23:00:00 21,6 11,9 6 3 19 11 S 1016,1 50 0,0
18.07.2018 22:00:00 24,2 12,8 10 5 17 9 SSE 1015,7 50 0,0
18.07.2018 21:00:00 24,1 14,6 6 3 12 6 SSE 1015,7 47 0,0
18.07.2018 20:00:00 25,9 14,1 6 4 22 12 S 1015,6 49 0,0
18.07.2018 19:00:00 27,9 13,1 10 6 34 18 S 1015,4 50 0,0
18.07.2018 18:00:00 29,7 12,2 15 8 34 18 SSE 1015,2 39 0,0
18.07.2018 17:00:00 29,8 12,3 16 9 34 19 S 1015,4 37 0,0
18.07.2018 16:00:00 30,0 12,0 17 9 44 24 S 1015,8 34 0,0
18.07.2018 15:00:00 29,1 12,1 17 9 42 23 S 1016,4 39 0,0
18.07.2018 14:00:00 29,5 11,6 18 10 40 22 S 1016,6 46 0,0
18.07.2018 13:00:00 29,3 11,0 16 9 36 19 S 1016,9 34 0,0
18.07.2018 12:00:00 28,7 9,9 19 10 44 24 S 1017,3 38 0,0
18.07.2018 11:00:00 28,2 11,4 18 10 36 19 S 1017,5 48 0,0
18.07.2018 10:00:00 27,2 13,2 18 10 38 21 S 1018,0 33 0,0
18.07.2018 09:00:00 26,3 13,8 13 7 25 14 S 1018,3 37 0,0
18.07.2018 08:00:00 22,7 14,8 8 5 13 7 E 1019,1 39 0,0
18.07.2018 07:00:00 21,0 13,9 5 3 11 6 E 1019,5 44 0,0
18.07.2018 06:00:00 19,2 13,2 7 4 13 7 E 1019,8 43 0,0
18.07.2018 05:00:00 17,9 13,0 6 4 11 6 E 1020,0 48 0,0
18.07.2018 04:00:00 16,4 13,0 6 3 10 5 E 1020,3 50 0,0
18.07.2018 03:00:00 15,4 12,4 4 2 11 6 E 1020,5 50 0,0
18.07.2018 02:00:00 17,9 12,8 6 4 9 5 E 1019,7 50 0,0
18.07.2018 01:00:00 19,0 13,5 6 4 10 5 E 1019,4 50 0,0
18.07.2018 00:00:00 20,4 13,4 6 3 11 6 E 1018,9 42 0,0
17.07.2018 23:00:00 22,0 13,9 6 3 14 7 E 1018,4 50 0,0
17.07.2018 22:00:00 25,0 13,9 4 2 12 7 E 1017,7 50 0,0
17.07.2018 21:00:00 26,2 14,0 5 3 13 7 S 1017,0 48 0,0
17.07.2018 20:00:00 26,8 12,8 7 4 19 10 S 1016,6 50 0,0
17.07.2018 19:00:00 28,3 12,3 11 6 23 12 S 1016,4 50 0,0
17.07.2018 18:00:00 29,2 12,7 12 6 29 15 S 1016,2 50 0,0
17.07.2018 17:00:00 29,6 12,5 10 6 24 13 S 1016,0 44 0,0
17.07.2018 16:00:00 29,9 12,8 10 5 27 14 SSW 1016,1 42 0,0
17.07.2018 15:00:00 29,1 12,5 10 5 22 12 SSE 1016,4 50 0,0
17.07.2018 14:00:00 28,7 13,4 7 4 19 11 S 1016,5 46 0,0
17.07.2018 13:00:00 28,9 12,8 10 5 25 14 SW 1016,6 39 0,0
17.07.2018 12:00:00 28,6 14,1 9 5 26 14 SSW 1016,6 47 0,0
17.07.2018 11:00:00 27,7 12,9 11 6 26 14 SSW 1016,8 49 0,0
17.07.2018 10:00:00 26,5 12,6 11 6 22 12 S 1017,0 29 0,0
17.07.2018 09:00:00 25,5 12,4 9 5 19 10 SSW 1017,3 24 0,0
17.07.2018 08:00:00 24,0 12,4 10 5 19 11 SW 1017,3 48 0,0
17.07.2018 07:00:00 22,6 13,4 7 4 18 10 SSW 1017,4 50 0,0
17.07.2018 06:00:00 20,7 12,9 8 5 18 10 SSW 1017,7 49 0,0
17.07.2018 05:00:00 19,1 12,4 6 3 15 8 SW 1017,9 50 0,0
17.07.2018 04:00:00 17,4 11,9 8 4 16 9 SW 1017,8 50 0,0
17.07.2018 03:00:00 17,0 11,1 10 5 18 10 SSW 1017,8 50 0,0
17.07.2018 02:00:00 16,5 11,1 10 5 19 10 SSW 1017,7 50 0,0
17.07.2018 01:00:00 18,9 11,0 10 5 22 12 SSW 1017,0 50 0,0
17.07.2018 00:00:00 19,5 11,1 8 4 17 9 S 1016,8 50 0,0
16.07.2018 23:00:00 21,0 11,6 7 4 14 8 S 1016,3 50 0,0
16.07.2018 22:00:00 22,6 12,6 6 3 11 6 SSE 1015,9 50 0,0
16.07.2018 21:00:00 25,0 12,0 5 3 13 7 SSE 1015,3 50 0,0
16.07.2018 20:00:00 25,2 11,0 6 4 15 8 S 1015,1 50 0,0
16.07.2018 19:00:00 25,4 10,1 4 2 14 8 ESE 1015,0 50 0,0
16.07.2018 18:00:00 25,0 10,2 9 5 20 11 E 1014,9 45 0,0
16.07.2018 17:00:00 24,8 11,0 6 4 16 8 ESE 1014,8 50 0,0
16.07.2018 16:00:00 24,1 10,1 4 2 13 7 E 1015,2 46 0,0
16.07.2018 15:00:00 22,0 9,9 5 3 10 5 ESE 1015,8 47 0,0
16.07.2018 14:00:00 22,3 9,9 6 4 17 9 NW 1015,9 47 0,0
16.07.2018 13:00:00 21,5 10,1 9 5 20 11 NNW 1016,0 50 0,0
16.07.2018 12:00:00 21,0 9,3 11 6 21 12 NNW 1016,1 38 0,0
16.07.2018 11:00:00 22,4 9,9 12 6 24 13 NW 1015,7 43 0,0
16.07.2018 10:00:00 21,6 9,2 12 6 29 16 W 1015,3 46 0,0
16.07.2018 09:00:00 20,1 9,1 11 6 24 13 W 1015,2 42 0,0
16.07.2018 08:00:00 18,8 9,9 12 6 24 13 W 1015,1 47 0,0
16.07.2018 07:00:00 17,8 9,7 11 6 23 13 W 1015,1 45 0,0
16.07.2018 06:00:00 16,2 9,6 14 8 24 13 W 1015,2 50 0,0
16.07.2018 05:00:00 15,1 9,6 12 6 21 11 W 1014,9 50 0,0
16.07.2018 04:00:00 13,9 10,1 5 3 14 8 SW 1014,9 50 0,0
16.07.2018 03:00:00 12,0 9,8 5 3 13 7 SW 1014,9 50 0,0
16.07.2018 02:00:00 11,6 9,6 4 2 10 5 WSW 1014,9 50 0,0
16.07.2018 01:00:00 11,7 9,8 3 1 9 5 SSW 1014,4 50 0,0
16.07.2018 00:00:00 13,0 9,8 6 3 15 8 WSW 1013,7 50 0,0
15.07.2018 23:00:00 15,6 10,2 10 6 15 8 W 1013,0 50 0,0
15.07.2018 22:00:00 16,7 11,0 5 3 10 5 W 1012,3 50 0,0
15.07.2018 21:00:00 18,0 10,9 6 3 19 11 W 1011,8 49 0,0

tt = Température de l'air
td = dewpoint
ff = Vitesse du vent
fx = gusts
dd = Direction du vent
ppp = reduced air pressure
vv = visibility
rr = Quantités de précipitations

stations d'obs. à proximité